Regional Weather Roundup
Issued by NWS

Home | Current Version | Previous Version | Graphics & Text | Print | Product List | Glossary On
Versions: 1 2 3 4 5 6 7 8 9 10 11 12 13 14 15 16 17 18 19 20 21 22 23 24 25 26 27 28 29 30 31 32 33 34 35 36 37 38 39 40 41 42 43 44 45 46 47 48 49 50
580
ASUS45 KBOU 240107
RWRCO

WEATHER ROUNDUP FOR COLORADO
NATIONAL WEATHER SERVICE DENVER/BOULDER CO
700 PM MDT TUE MAY 23 2017

NOTE: "FAIR" INDICATES FEW OR NO CLOUDS BELOW 12000 FEET WITH NO
SIGNIFICANT WEATHER AND/OR OBSTRUCTIONS TO VISIBILITY.

COZ001>005-013-030-031-240200-
...NORTHWEST COLORADO...

CITY           SKY/WX    TMP DP  RH WIND       PRES   REMARKS
CRAIG          FAIR      61  31  32 SW5       30.15F
HAYDEN         FAIR      57  28  33 SW7       30.17F
MEEKER         FAIR      61  30  31 SE8       30.17F
RABBIT EARS PA FAIR      34  32  93 W13G21    30.32F WCI  25
STEAMBOAT SPGS FAIR      55  31  40 SW3       30.18F
WALDEN           N/A     50  27  40 NW10      30.23S
$$

COZ006>008-011-240200-
...WEST CENTRAL VALLEYS...

CITY           SKY/WX    TMP DP  RH WIND       PRES   REMARKS
GRAND JUNCTION FAIR      72  28  19 SE5       30.07F
MONTROSE       FAIR      68  19  15 NW7       30.15F
EAGLE          SUNNY     63  23  22 NE12      30.20F
RIFLE          FAIR      68  24  19 NW8       30.13F
DELTA          FAIR      74  20  13 S6        30.11F
NUCLA          FAIR      70  28  21 NW10      30.17F
$$

COZ017>023-064>068-240200-
...SOUTHWEST COLORADO...

CITY           SKY/WX    TMP DP  RH WIND       PRES   REMARKS
DURANGO        FAIR      68  12  11 N14       30.09R
CORTEZ         FAIR      70  19  14 N15G24    30.12S
PAGOSA SPRINGS FAIR      65   9  10 N9G17     30.13R
TELLURIDE      FAIR      53  13  20 NW17G23   30.32R
WOLF CREEK PAS FAIR      37  12  35 NW6       30.42S
$$

COZ009-010-012-014-032>034-037-058>063-240200-
...CENTRAL COLORADO...

CITY           SKY/WX    TMP DP  RH WIND       PRES   REMARKS
ASPEN          FAIR      57  21  24 N12       30.20F
BUENA VISTA    FAIR      55  19  24 NW16G22   30.18S
COPPER MTN     FAIR      36  23  60 NW15G30   30.37S
BERTHOUD PASS  PTSUNNY   23  12  63 NW31G40   30.32S WCI   5
COTTONWOOD PAS FAIR      52  16  24 W6G16     30.26S
GUNNISON       FAIR      58  16  19 NW10      30.20R
KREMMLING      FAIR      57  32  38 W9        30.24S
LEADVILLE      FAIR      45  17  32 N18G25    30.27F
MONARCH PASS   FAIR      39  14  35 NW23G29   30.47S
SALIDA         FAIR      60  18  20 N10G18    30.23S
SUNLIGHT       FAIR      41  14  33 NW10G16   30.39F
WILKERSON PASS FAIR      34  21  60 NW8G24    30.33F WCI  27
$$

COZ069>075-240200-
...SAN LUIS VALLEY/SANGRE DE CRISTO MOUNTAINS...

CITY           SKY/WX    TMP DP  RH WIND       PRES   REMARKS
ALAMOSA        FAIR      62  12  14 N13G24    30.12R
DEL NORTE      FAIR      57  20  23 NW18      30.17S
LA VETA PASS   FAIR      34  27  75 N8        30.38R WCI  27
SAGUACHE       FAIR      59  18  20 NW18G25   30.16S
$$

COZ035-036-038>040-240200-
...NORTHERN COLORADO FRONT RANGE...

CITY           SKY/WX    TMP DP  RH WIND       PRES   REMARKS
DENVER INTL AP FAIR      59  33  37 N14       30.09F
DMNS CITY PARK   N/A     60  31  33 E6G16     30.08S
AURORA         MOSUNNY   59  33  37 N9        30.10F
FRONT RANGE AP MOSUNNY   61  36  39 N9G24     30.10S
ERIE MUNI ARPT PTSUNNY   62  31  31 E7        30.08S
BOULDER MUN AP FAIR      61  32  33 SE5       30.08S
CENTENNIAL     FAIR      57  32  38 N10       30.10F
BROOMFIELD     PTSUNNY   61  32  33 NE7       30.10
FORT COLLINS   FAIR      63  35  35 NE14      30.07S
LONGMONT       PTSUNNY   63  34  33 E5        30.10R
$$

COZ041-046-047-076>085-087-088-240200-
...PIKES PEAK/PALMER DIVIDE AND SOUTHERN FOOTHILLS...

CITY           SKY/WX    TMP DP  RH WIND       PRES   REMARKS
COLO. SPRINGS  FAIR      59  30  33 N17       30.12S
A. F. ACADEMY  FAIR      55  28  35 N12       30.13R
SCHRIEVER AFB  FAIR      57  27  32 N17G26    30.12S
CHEYENNE MTN   PTSUNNY   53  28  38 NW7       30.09F
ELLICOTT       FAIR     N/A N/A N/A NE16G25   30.10F
FALCON         FAIR      55  28  35 N13G18    30.15F
FORT CARSON    FAIR      58  32  37 NW9       30.10S
LIMON          FAIR      56  32  40 N18G31    30.08F
MONUMENT HILL  FAIR      50  32  50 N8        30.17S
CANON CITY     NOT AVBL
WALSENBURG     NOT AVBL
TRINIDAD       FAIR      57  31  37 NE10      30.13S
$$

COZ042>045-048>051-090-091-240200-
...NORTHEAST COLORADO...

CITY           SKY/WX    TMP DP  RH WIND       PRES   REMARKS
GREELEY ARPT   FAIR      62  35  36 N15       30.07S
AKRON          FAIR      58  31  35 N17       30.05S
BURLINGTON     FAIR      58  36  43 N15       30.03F
WRAY           FAIR      61  34  36 N15       30.03S
YUMA           FAIR      55  23  28 N13G18    30.03S
STERLING       FAIR      61  34  36 N10G20    30.03S
HOLYOKE        NOT AVBL
FORT MORGAN    FAIR      60  29  30 N14G20    30.06F
$$

COZ086-089-092>099-240200-
...SOUTHEAST COLORADO...

CITY           SKY/WX    TMP DP  RH WIND       PRES   REMARKS
PUEBLO         FAIR      65  34  31 E8        30.06F
LA JUNTA       FAIR      63  33  32 N13       30.05F
LAMAR          CLOUDY    62  34  35 N15       30.02F
SPRINGFIELD      N/A     59  33  37 N18       30.04F
$$




USA.gov is the U.S. government's official web portal to all federal, state and local government web resources and services.